Regional Weather Roundup
Issued by NWS

Home | Current Version | Previous Version | Graphics & Text | Print | Product List | Glossary On
Versions: 1 2 3 4 5 6 7 8 9 10 11 12 13 14 15 16 17 18 19 20 21 22 23 24 25 26 27 28 29 30 31 32 33 34 35 36 37 38 39 40 41 42 43 44 45 46 47 48 49 50
000
ASUS43 KIND 311909
RWRIN

WEATHER ROUNDUP FOR INDIANA
NATIONAL WEATHER SERVICE INDIANAPOLIS IN
300 PM EDT TUE MAY 31 2016

NOTE: "FAIR" INDICATES FEW OR NO CLOUDS BELOW 12,000 FEET WITH NO
SIGNIFICANT WEATHER AND/OR OBSTRUCTIONS TO VISIBILITY.

* - STATION DOES NOT REPORT WEATHER SUCH AS PRECIPITATION OR FOG.

+ - STATION NOT QUALITY CONTROLLED BY THE NATIONAL WEATHER SERVICE.
    USE DATA WITH CAUTION...ESPECIALLY DEWPOINT AND RELATIVE
    HUMIDITY OBSERVATIONS.

INZ001>003-010>013-019-020-312000-
NORTHWEST INDIANA

CITY           SKY/WX    TMP DP  RH WIND       PRES   REMARKS
GARY /AIRPORT/ PTSUNNY   84  68  58 NE9       29.95F
KNOX *+          N/A     88  37  16 E6          N/A
LA PORTE +     PTSUNNY   87  54  32 E7        29.99F
MICHIGAN CITY+ PTSUNNY   84  59  42 E7        29.98F
MONTICELLO +   CLOUDY    87  44  22 SE5       29.94F
RENSSELAER +   CLOUDY    72  61  68 NW15      29.98R VSB 3/4
VALPARAISO     MOSUNNY   86  56  35 E13G20    29.97F

$$

LMZ046-743>745-312000-
SOUTHERN LAKE MICHIGAN

STATION/POSITION TIME  TEMP    WIND        PRES    WAVE
                       AIR SEA DIR/SP/G            HT
                 (UTC) (F)     (DEG/KT/KT) (MB)    (FT)
BURNS HARBOR     1800   75      80/  7/ 10 1015.6F
MICHIGAN CITY    1800   80      90/  8/ 10   N/A
5NW MICH CITY    1810   67 63   50/  6/  8   N/A     0

$$

INZ004-005-014>016-021>024-312000-
NORTH CENTRAL INDIANA

CITY           SKY/WX    TMP DP  RH WIND       PRES   REMARKS
ELKHART        PTSUNNY   82  57  42 E5        30.02F
GOSHEN         SUNNY     86  51  29 SE8       30.00F
LOGANSPORT +   CLOUDY    84  52  32 CALM      29.97F
PERU/GRISSOM   SUNNY     87  56  35 VRB6      29.96F
ROCHESTER +    SUNNY     88  54  31 SE8       29.99F
SOUTH BEND     CLOUDY    83  54  36 E8        30.01
WARSAW +       SUNNY     84  54  34 CALM      30.00F

$$

INZ006>009-017-018-025>027-312000-
NORTHEAST INDIANA

CITY           SKY/WX    TMP DP  RH WIND       PRES   REMARKS
ANGOLA *+        N/A     84  48  28 S6        30.03S
AUBURN +       MOSUNNY   84  45  24 SE6       30.03S
FORT WAYNE     PTSUNNY   85  55  35 SE8       30.00F
HUNTINGTON +   PTSUNNY  N/A N/A N/A SE6       29.99F

$$

INZ028-029-035-036-043>045-051>053-312000-
WEST CENTRAL INDIANA

CITY           SKY/WX    TMP DP  RH WIND       PRES   REMARKS
CRAWFORDSVL +  CLOUDY    88  55  32 S13G18    29.97F
GREENCASTLE +  CLOUDY    82  63  51 S5        29.98F
LAFAYETTE      CLOUDY    85  54  34 VRB7      29.94F
TERRE HAUTE    CLOUDY    86  57  37 S6G16     29.96F

$$

INZ030>032-037>040-046>048-054>057-064-065-312000-
CENTRAL INDIANA

CITY           SKY/WX    TMP DP  RH WIND       PRES   REMARKS
CP ATTERBURY + SUNNY     86  59  39 SW7       29.98F
COLUMBUS       MOSUNNY   84  55  37 S8        29.98F
FRANKFORT +      N/A     85  27  12 CALM      29.98F
GREENWOOD *+   MOSUNNY   84  57  39 W9        29.98F
INDIANAPOLIS   MOSUNNY   83  58  42 SW12      29.97F
-EAGLE CREEK   MOSUNNY   86  55  34 SW6       29.97F
KOKOMO *+      PTSUNNY   84  57  39 SE5       29.97S
MARION +       MOSUNNY   86  54  33 E10       29.99F
SHELBYVILLE    PTSUNNY   89  54  30 SW7       29.97S
ZIONSVILLE +   MOSUNNY   86  55  34 S9        29.98F

$$

INZ033-034-041-042-049-050-058-059-312000-
EAST CENTRAL INDIANA

CITY           SKY/WX    TMP DP  RH WIND       PRES   REMARKS
MUNCIE         MOSUNNY   89  49  25 VRB5      29.98F

$$

INZ060-061-067>069-081>083-085>088-312000-
SOUTHWEST INDIANA

CITY           SKY/WX    TMP DP  RH WIND       PRES   REMARKS
EVANSVILLE     CLOUDY    86  58  38 S8        29.95F
HUNTINGBURG *+ SUNNY     84  57  39 SE13      29.96F
WASHINGTON +   MOSUNNY   88  62  41 S8        29.95F

$$

INZ062-063-066-070>080-084-089>092-312000-
SOUTH CENTRAL AND SOUTHEAST INDIANA

CITY           SKY/WX    TMP DP  RH WIND       PRES   REMARKS
BEDFORD +      MOSUNNY   86  70  58 SE3       29.97F
BLOOMINGTON    SUNNY     86  59  39 E7        29.98F
MADISON *+     CLOUDY    88  46  23 SE3       30.01F
NORTH VERNON + CLOUDY    86  64  48 CALM      29.99F
SEYMOUR +      MOSUNNY   88  57  35 CALM      29.98F

$$




USA.gov is the U.S. government's official web portal to all federal, state and local government web resources and services.